カタログに戻る

STARLINK-36206

運用中通信VLEO
NORAD 66930·PAYLOAD·🇺🇸 United States

打ち上げ Dec 7, 2025 から Vandenberg Space Force Base

Loading…

次のパス (今後24時間)

TLE

最新Source: CelesTrak SupGP

元期: Sep 14, 2026, 23:24 UTC

1 66930C 25286F   26257.97548611 -.00038559  00000+0 -11387-2 0  2570
2 66930  53.1591 195.7791 0001442  91.2254 355.4918 15.34423729    19

AllMySatでSTARLINK-36206をリアルタイム追跡

Download on the App Store